RYR6CN GCLP-EIDW

Flight info

Callsign RYR6CN
Flight time N/A
Altitude 36000
Route VASTO DCT NIDEB DCT TIGGI/N0439F380 DCT IBIDO DCT XERES DCT ADVAT/M076F370 T290 GELPO DCT JABEX/N0437F370 DCT BIBLA DCT SOVIX DCT CML DCT SUTEX SUTEX4L
Aircraft B738/M-SDE2E3FGHIRWXY/LB1

Departure

Time 2026-05-04 22:04
Airport Gran Canaria Airport (GCLP)

Arrival

Time N/A
Airport Dublin Airport (EIDW)
Time Latitude Longitude Altitude Speed Heading
2026-05-04 21:54 27.93741 -15.38772 84 ft 1 kts 200°
2026-05-04 21:55 27.93741 -15.38771 84 ft 0 kts 200°
2026-05-04 21:58 27.93728 -15.38777 87 ft 5 kts 201°
2026-05-04 21:58 27.93678 -15.38799 84 ft 10 kts 201°
2026-05-04 21:58 27.93597 -15.38835 85 ft 14 kts 202°
2026-05-04 21:59 27.93490 -15.38876 82 ft 18 kts 198°
2026-05-04 21:59 27.93361 -15.38933 85 ft 21 kts 201°
2026-05-04 21:59 27.93228 -15.38992 84 ft 20 kts 201°
2026-05-04 21:59 27.93110 -15.39044 82 ft 16 kts 201°
2026-05-04 22:00 27.93005 -15.39090 82 ft 16 kts 201°
2026-05-04 22:00 27.92905 -15.39135 86 ft 15 kts 201°
2026-05-04 22:00 27.92809 -15.39178 89 ft 15 kts 207°
2026-05-04 22:00 27.92729 -15.39245 91 ft 14 kts 209°
2026-05-04 22:01 27.92641 -15.39284 95 ft 13 kts 201°
2026-05-04 22:01 27.92557 -15.39322 99 ft 13 kts 201°
2026-05-04 22:01 27.92472 -15.39311 99 ft 13 kts 146°
2026-05-04 22:01 27.92433 -15.39250 96 ft 9 kts 119°
2026-05-04 22:02 27.92382 -15.39215 97 ft 9 kts 193°
2026-05-04 22:02 27.92321 -15.39240 98 ft 9 kts 201°
2026-05-04 22:02 27.92258 -15.39269 100 ft 11 kts 201°
2026-05-04 22:02 27.92171 -15.39305 97 ft 16 kts 191°
2026-05-04 22:03 27.92041 -15.39300 91 ft 19 kts 176°
2026-05-04 22:03 27.91930 -15.39276 87 ft 14 kts 134°
2026-05-04 22:03 27.91960 -15.39203 84 ft 17 kts 24°
2026-05-04 22:03 27.92258 -15.39070 72 ft 77 kts 21°
2026-05-04 22:04 27.92922 -15.38777 60 ft 128 kts 21°
2026-05-04 22:04 27.93868 -15.38365 149 ft 157 kts 20°
2026-05-04 22:04 27.94911 -15.37901 562 ft 165 kts 20°
2026-05-04 22:04 27.95989 -15.37420 1057 ft 167 kts 20°
2026-05-04 22:05 27.97071 -15.36948 1642 ft 166 kts 20°
2026-05-04 22:05 27.98195 -15.36469 2127 ft 184 kts 20°
2026-05-04 22:05 27.99415 -15.35953 2767 ft 192 kts 21°
2026-05-04 22:05 28.00738 -15.35382 3013 ft 215 kts 21°
2026-05-04 22:06 28.02184 -15.34757 3399 ft 228 kts 20°
2026-05-04 22:06 28.03693 -15.34106 3829 ft 237 kts 20°
2026-05-04 22:06 28.05303 -15.33408 3904 ft 252 kts 20°
2026-05-04 22:06 28.06383 -15.32937 3966 ft 252 kts 20°
2026-05-04 22:07 28.08022 -15.32224 4011 ft 252 kts 20°
2026-05-04 22:07 28.09662 -15.31510 4007 ft 253 kts 20°
2026-05-04 22:07 28.11302 -15.30797 4018 ft 253 kts 20°
2026-05-04 22:07 28.12952 -15.30042 4204 ft 259 kts 22°
2026-05-04 22:08 28.14626 -15.29200 4931 ft 262 kts 23°
2026-05-04 22:08 28.16304 -15.28338 5656 ft 270 kts 23°
2026-05-04 22:08 28.18042 -15.27443 6339 ft 277 kts 22°
2026-05-04 22:08 28.19824 -15.26528 7000 ft 284 kts 22°
2026-05-04 22:09 28.21647 -15.25593 7676 ft 290 kts 22°
2026-05-04 22:09 28.23477 -15.24656 8374 ft 295 kts 22°
2026-05-04 22:09 28.25362 -15.23692 9086 ft 300 kts 22°
2026-05-04 22:09 28.27280 -15.22712 9797 ft 304 kts 22°
2026-05-04 22:10 28.29232 -15.21715 10395 ft 313 kts 22°
2026-05-04 22:10 28.31294 -15.20665 10572 ft 336 kts 22°
2026-05-04 22:10 28.33496 -15.19545 10793 ft 356 kts 22°
2026-05-04 22:10 28.35790 -15.18375 11273 ft 366 kts 21°
2026-05-04 22:11 28.38126 -15.17181 11886 ft 371 kts 21°
2026-05-04 22:11 28.40493 -15.15970 12521 ft 375 kts 21°
2026-05-04 22:11 28.42889 -15.14744 13177 ft 380 kts 21°
2026-05-04 22:11 28.45322 -15.13500 13809 ft 386 kts 20°
2026-05-04 22:12 28.47799 -15.12233 14402 ft 392 kts 20°
2026-05-04 22:12 28.50295 -15.10955 15065 ft 395 kts 20°
2026-05-04 22:12 28.52810 -15.09666 15759 ft 398 kts 20°
2026-05-04 22:12 28.55348 -15.08365 16424 ft 402 kts 20°
2026-05-04 22:13 28.57877 -15.07069 17075 ft 406 kts 20°
2026-05-04 22:13 28.60468 -15.05740 17710 ft 410 kts 19°
2026-05-04 22:13 28.63083 -15.04399 18374 ft 414 kts 19°
2026-05-04 22:13 28.65722 -15.03044 18952 ft 417 kts 19°
2026-05-04 22:14 28.68384 -15.01677 19515 ft 421 kts 19°
2026-05-04 22:14 28.71065 -15.00299 20067 ft 425 kts 19°
2026-05-04 22:14 28.73771 -14.98907 20622 ft 428 kts 19°
2026-05-04 22:14 28.76500 -14.97503 21157 ft 432 kts 19°
2026-05-04 22:15 28.79255 -14.96085 21678 ft 436 kts 19°
2026-05-04 22:15 28.82031 -14.94655 22206 ft 440 kts 19°
2026-05-04 22:15 28.84835 -14.93210 22714 ft 444 kts 18°
2026-05-04 22:15 28.87630 -14.91769 23203 ft 448 kts 18°
2026-05-04 22:16 28.90478 -14.90299 23697 ft 451 kts 18°
2026-05-04 22:16 28.93352 -14.88815 24118 ft 454 kts 18°
2026-05-04 22:16 28.96237 -14.87323 24560 ft 457 kts 18°
2026-05-04 22:16 28.99142 -14.85820 25004 ft 459 kts 18°
2026-05-04 22:17 29.02059 -14.84310 25425 ft 462 kts 18°
2026-05-04 22:17 29.04995 -14.82790 25846 ft 464 kts 18°
2026-05-04 22:17 29.07948 -14.81260 26249 ft 467 kts 18°
2026-05-04 22:17 29.10918 -14.79720 26651 ft 469 kts 18°
2026-05-04 22:18 29.13862 -14.78193 27030 ft 472 kts 18°
2026-05-04 22:18 29.16690 -14.76726 27410 ft 474 kts 18°
2026-05-04 22:18 29.19703 -14.75160 27792 ft 476 kts 19°
2026-05-04 22:18 29.22734 -14.73586 28163 ft 479 kts 19°
2026-05-04 22:19 29.25783 -14.72000 28530 ft 481 kts 19°
2026-05-04 22:19 29.28838 -14.70410 28875 ft 483 kts 19°
2026-05-04 22:19 29.31909 -14.68810 29229 ft 486 kts 19°
2026-05-04 22:19 29.34991 -14.67205 29574 ft 488 kts 19°
2026-05-04 22:20 29.38052 -14.65609 29902 ft 490 kts 19°
2026-05-04 22:20 29.41156 -14.63988 30293 ft 490 kts 19°
2026-05-04 22:20 29.44258 -14.62367 30736 ft 488 kts 19°
2026-05-04 22:20 29.47349 -14.60749 31148 ft 487 kts 19°
2026-05-04 22:21 29.50427 -14.59139 31496 ft 487 kts 19°
2026-05-04 22:21 29.53509 -14.57527 31808 ft 488 kts 19°
2026-05-04 22:21 29.56601 -14.55909 32168 ft 487 kts 19°
2026-05-04 22:21 29.59682 -14.54294 32559 ft 486 kts 19°
2026-05-04 22:22 29.62752 -14.52685 32919 ft 486 kts 19°
2026-05-04 22:22 29.65834 -14.51069 33244 ft 486 kts 18°
2026-05-04 22:22 29.68911 -14.49453 33604 ft 485 kts 18°
2026-05-04 22:22 29.69909 -14.48929 33717 ft 484 kts 18°
2026-05-04 22:23 29.72307 -14.47669 34001 ft 484 kts 18°
2026-05-04 22:23 29.75371 -14.46058 34315 ft 483 kts 18°
2026-05-04 22:24 29.78435 -14.44447 34556 ft 484 kts 18°
2026-05-04 22:24 29.81505 -14.42832 34794 ft 485 kts 18°
2026-05-04 22:24 29.84576 -14.41215 35062 ft 485 kts 18°
2026-05-04 22:24 29.87644 -14.39598 35351 ft 484 kts 18°
2026-05-04 22:25 29.90665 -14.38003 35657 ft 482 kts 18°
2026-05-04 22:25 29.93714 -14.36393 35939 ft 482 kts 18°
2026-05-04 22:25 29.96767 -14.34780 36156 ft 482 kts 18°
2026-05-04 22:26 30.02927 -14.31530 36155 ft 491 kts 18°
2026-05-04 22:26 30.09200 -14.28214 36155 ft 500 kts 18°
2026-05-04 22:27 30.15580 -14.24833 36155 ft 508 kts 19°
2026-05-04 22:27 30.22059 -14.21393 36154 ft 517 kts 18°
2026-05-04 22:28 30.28647 -14.17889 36158 ft 523 kts 18°
2026-05-04 22:28 30.35221 -14.14384 36142 ft 524 kts 18°
2026-05-04 22:29 30.41851 -14.10844 36148 ft 524 kts 18°
2026-05-04 22:29 30.48470 -14.07306 36145 ft 523 kts 18°
2026-05-04 22:30 30.55089 -14.03765 36142 ft 522 kts 18°
2026-05-04 22:30 30.61628 -14.00261 36148 ft 520 kts 18°
2026-05-04 22:31 30.68191 -13.96740 36147 ft 519 kts 18°
2026-05-04 22:31 30.74735 -13.93224 36147 ft 517 kts 18°
2026-05-04 22:32 30.81267 -13.89709 36149 ft 516 kts 19°
2026-05-04 22:32 30.87783 -13.86197 36149 ft 515 kts 19°
2026-05-04 22:33 30.94242 -13.82711 36149 ft 514 kts 19°
2026-05-04 22:33 31.00732 -13.79203 36152 ft 513 kts 19°
2026-05-04 22:34 31.07217 -13.75692 36153 ft 513 kts 19°
2026-05-04 22:34 31.13697 -13.72179 36151 ft 513 kts 19°
2026-05-04 22:35 31.20163 -13.68668 36154 ft 512 kts 19°
2026-05-04 22:35 31.26624 -13.65155 36153 ft 512 kts 19°
2026-05-04 22:36 31.33038 -13.61661 36155 ft 512 kts 19°
2026-05-04 22:36 31.39486 -13.58143 36150 ft 511 kts 19°
2026-05-04 22:37 31.45931 -13.54622 36156 ft 511 kts 19°
2026-05-04 22:37 31.52370 -13.51099 36154 ft 510 kts 19°
2026-05-04 22:38 31.58810 -13.47570 36150 ft 510 kts 20°
2026-05-04 22:38 31.65237 -13.44043 36149 ft 509 kts 20°
2026-05-04 22:39 31.71656 -13.40515 36148 ft 509 kts 20°
2026-05-04 22:39 31.78036 -13.37002 36152 ft 508 kts 20°
2026-05-04 22:40 31.84437 -13.33473 36152 ft 508 kts 20°
2026-05-04 22:40 31.90839 -13.29938 36153 ft 507 kts 20°
2026-05-04 22:41 31.97230 -13.26403 36154 ft 507 kts 20°
2026-05-04 22:41 32.03611 -13.22868 36151 ft 506 kts 20°
2026-05-04 22:42 32.09990 -13.19329 36153 ft 505 kts 20°
2026-05-04 22:42 32.16313 -13.15816 36157 ft 504 kts 20°
2026-05-04 22:43 32.22657 -13.12285 36157 ft 503 kts 20°
2026-05-04 22:43 32.28989 -13.08756 36156 ft 503 kts 20°
2026-05-04 22:44 32.35283 -13.05242 36154 ft 502 kts 20°
2026-05-04 22:44 32.41592 -13.01715 36157 ft 501 kts 21°
2026-05-04 22:45 32.47889 -12.98189 36158 ft 500 kts 21°
2026-05-04 22:45 32.57316 -12.92900 36158 ft 499 kts 21°
2026-05-04 22:46 32.63587 -12.89375 36158 ft 498 kts 21°
2026-05-04 22:46 32.69849 -12.85850 36158 ft 497 kts 21°
2026-05-04 22:47 32.76070 -12.82342 36158 ft 497 kts 21°
2026-05-04 22:47 32.82309 -12.78819 36157 ft 496 kts 21°
2026-05-04 22:48 32.88560 -12.75283 36164 ft 495 kts 21°
2026-05-04 22:48 32.94735 -12.71784 36162 ft 495 kts 21°
2026-05-04 22:49 33.04552 -12.66212 36165 ft 493 kts 21°
2026-05-04 22:49 33.10744 -12.62689 36165 ft 493 kts 21°
2026-05-04 22:50 33.16931 -12.59164 36163 ft 492 kts 21°
2026-05-04 22:50 33.23108 -12.55639 36163 ft 491 kts 21°
2026-05-04 22:51 33.29276 -12.52114 36168 ft 491 kts 21°
2026-05-04 22:51 33.35398 -12.48610 36168 ft 490 kts 21°
2026-05-04 22:52 33.41554 -12.45081 36166 ft 490 kts 21°
2026-05-04 22:52 33.47710 -12.41546 36167 ft 490 kts 21°
2026-05-04 22:53 33.53850 -12.38014 36171 ft 489 kts 21°
2026-05-04 22:53 33.59982 -12.34482 36168 ft 489 kts 21°
2026-05-04 22:54 33.66114 -12.30944 36169 ft 488 kts 21°
2026-05-04 22:54 33.71198 -12.28007 36168 ft 488 kts 21°
2026-05-04 22:55 33.78312 -12.23890 36167 ft 488 kts 21°
2026-05-04 22:55 33.83443 -12.20916 36169 ft 488 kts 21°
2026-05-04 22:56 33.89524 -12.17386 36170 ft 487 kts 21°
2026-05-04 22:56 33.95630 -12.13836 36169 ft 487 kts 21°
2026-05-04 22:57 34.01745 -12.10275 36171 ft 487 kts 21°
2026-05-04 22:57 34.07861 -12.06708 36173 ft 487 kts 21°
2026-05-04 22:58 34.13934 -12.03159 36175 ft 487 kts 21°
2026-05-04 22:58 34.20039 -11.99587 36177 ft 488 kts 21°
2026-05-04 22:59 34.26151 -11.96005 36175 ft 488 kts 21°
2026-05-04 22:59 34.32264 -11.92416 36179 ft 488 kts 21°
2026-05-04 23:00 34.38378 -11.88821 36177 ft 488 kts 21°
2026-05-04 23:00 34.44496 -11.85217 36186 ft 488 kts 21°
2026-05-04 23:01 34.50607 -11.81612 36184 ft 489 kts 21°
2026-05-04 23:01 34.56690 -11.78017 36184 ft 489 kts 21°
2026-05-04 23:02 34.62804 -11.74399 36190 ft 489 kts 21°
2026-05-04 23:02 34.68927 -11.70769 36188 ft 489 kts 21°
2026-05-04 23:03 34.75055 -11.67130 36182 ft 490 kts 21°
2026-05-04 23:03 34.81152 -11.63503 36190 ft 491 kts 21°
2026-05-04 23:04 34.87288 -11.59847 36182 ft 491 kts 21°
2026-05-04 23:04 34.93432 -11.56180 36182 ft 492 kts 21°
2026-05-04 23:05 34.99589 -11.52499 36181 ft 492 kts 21°
2026-05-04 23:05 35.05738 -11.48817 36187 ft 492 kts 21°
2026-05-04 23:06 35.11894 -11.45125 36185 ft 493 kts 21°
2026-05-04 23:06 35.18011 -11.41449 36183 ft 493 kts 21°
2026-05-04 23:07 35.24181 -11.37735 36186 ft 493 kts 21°
2026-05-04 23:07 35.30346 -11.34018 36185 ft 493 kts 21°
2026-05-04 23:08 35.36467 -11.30321 36184 ft 493 kts 21°
2026-05-04 23:08 35.42621 -11.26598 36182 ft 493 kts 21°
2026-05-04 23:09 35.48772 -11.22871 36185 ft 493 kts 21°
2026-05-04 23:09 35.54929 -11.19133 36184 ft 493 kts 21°
2026-05-04 23:10 35.61091 -11.15386 36185 ft 493 kts 21°
2026-05-04 23:10 35.67209 -11.11659 36183 ft 493 kts 21°
2026-05-04 23:11 35.73365 -11.07902 36178 ft 493 kts 21°
2026-05-04 23:11 35.79518 -11.04141 36169 ft 494 kts 21°
2026-05-04 23:12 35.85640 -11.00391 36167 ft 494 kts 21°
2026-05-04 23:12 35.91796 -10.96615 36168 ft 494 kts 21°
2026-05-04 23:13 35.98115 -10.93467 36174 ft 484 kts
2026-05-04 23:13 36.04693 -10.92289 36174 ft 477 kts 359°
2026-05-04 23:14 36.11302 -10.91444 36173 ft 477 kts 359°
2026-05-04 23:14 36.17911 -10.90562 36172 ft 478 kts 359°
2026-05-04 23:15 36.24524 -10.89631 36171 ft 478 kts 359°
2026-05-04 23:15 36.31136 -10.88681 36169 ft 478 kts 359°
2026-05-04 23:16 36.37742 -10.87727 36169 ft 477 kts 359°
2026-05-04 23:16 36.44296 -10.86781 36174 ft 476 kts 359°
2026-05-04 23:17 36.50883 -10.85830 36180 ft 476 kts 359°
2026-05-04 23:17 36.57451 -10.84881 36172 ft 475 kts 359°
2026-05-04 23:18 36.64010 -10.83932 36175 ft 474 kts 359°
2026-05-04 23:18 36.70558 -10.82983 36171 ft 473 kts 359°
2026-05-04 23:19 36.77106 -10.82032 36175 ft 473 kts 359°
2026-05-04 23:19 36.83642 -10.81081 36172 ft 472 kts 359°
2026-05-04 23:20 36.90147 -10.80133 36176 ft 472 kts 359°
2026-05-04 23:20 36.96669 -10.79181 36176 ft 472 kts 359°
2026-05-04 23:21 37.03210 -10.78225 36175 ft 472 kts 359°
2026-05-04 23:21 37.09711 -10.77273 36174 ft 472 kts 359°